PAS102 WIII-WAAA

Flight info

Callsign PAS102
Flight time 1h 52m
Altitude 38000
Route CA2A CA T5 BIMAK BIMAK1A
Aircraft A320/M-SDE3FGHIRWY/LB1

Departure

Time 2026-05-08 08:46
Airport Soekarno-Hatta International Airport (WIII)

Arrival

Time 2026-05-08 10:38
Airport Sultan Hasanuddin International Airport (WAAA)
Time Latitude Longitude Altitude Speed Heading
2026-05-08 08:11 -6.11622 106.66829 31 ft 0 kts 158°
2026-05-08 08:31 -6.11622 106.66828 31 ft 0 kts 158°
2026-05-08 08:35 -6.11618 106.66827 31 ft 2 kts 158°
2026-05-08 08:35 -6.11599 106.66819 31 ft 3 kts 158°
2026-05-08 08:35 -6.11581 106.66812 31 ft 3 kts 159°
2026-05-08 08:36 -6.11561 106.66806 31 ft 3 kts 168°
2026-05-08 08:36 -6.11542 106.66803 31 ft 3 kts 181°
2026-05-08 08:36 -6.11522 106.66805 31 ft 3 kts 204°
2026-05-08 08:36 -6.11507 106.66815 30 ft 2 kts 243°
2026-05-08 08:37 -6.11503 106.66825 30 ft 3 kts 246°
2026-05-08 08:37 -6.11496 106.66840 30 ft 1 kts 248°
2026-05-08 08:37 -6.11496 106.66841 30 ft 0 kts 248°
2026-05-08 08:39 -6.11502 106.66824 30 ft 7 kts 248°
2026-05-08 08:39 -6.11532 106.66747 31 ft 15 kts 249°
2026-05-08 08:39 -6.11575 106.66638 31 ft 18 kts 249°
2026-05-08 08:39 -6.11624 106.66511 31 ft 20 kts 249°
2026-05-08 08:40 -6.11617 106.66399 32 ft 17 kts 336°
2026-05-08 08:40 -6.11505 106.66352 31 ft 18 kts 338°
2026-05-08 08:40 -6.11385 106.66301 31 ft 19 kts 336°
2026-05-08 08:40 -6.11356 106.66217 32 ft 15 kts 248°
2026-05-08 08:41 -6.11399 106.66114 32 ft 17 kts 248°
2026-05-08 08:41 -6.11444 106.66001 31 ft 18 kts 248°
2026-05-08 08:41 -6.11493 106.65875 32 ft 20 kts 249°
2026-05-08 08:41 -6.11548 106.65737 32 ft 22 kts 248°
2026-05-08 08:42 -6.11607 106.65589 33 ft 23 kts 249°
2026-05-08 08:42 -6.11659 106.65456 32 ft 21 kts 248°
2026-05-08 08:42 -6.11716 106.65315 32 ft 23 kts 248°
2026-05-08 08:42 -6.11771 106.65177 32 ft 21 kts 247°
2026-05-08 08:43 -6.11828 106.65035 35 ft 22 kts 249°
2026-05-08 08:43 -6.11887 106.64885 36 ft 24 kts 248°
2026-05-08 08:43 -6.11951 106.64727 35 ft 25 kts 248°
2026-05-08 08:43 -6.12018 106.64561 34 ft 26 kts 247°
2026-05-08 08:44 -6.12086 106.64386 37 ft 27 kts 250°
2026-05-08 08:44 -6.12158 106.64207 37 ft 28 kts 248°
2026-05-08 08:44 -6.12233 106.64023 38 ft 28 kts 248°
2026-05-08 08:44 -6.12221 106.63888 39 ft 12 kts 326°
2026-05-08 08:45 -6.12213 106.63884 39 ft 0 kts 336°
2026-05-08 08:45 -6.12208 106.63882 39 ft 4 kts 340°
2026-05-08 08:45 -6.12132 106.63898 38 ft 16 kts 31°
2026-05-08 08:46 -6.12041 106.64009 37 ft 34 kts 68°
2026-05-08 08:46 -6.11863 106.64450 36 ft 107 kts 68°
2026-05-08 08:46 -6.11503 106.65353 139 ft 161 kts 66°
2026-05-08 08:46 -6.11078 106.66440 754 ft 171 kts 64°
2026-05-08 08:47 -6.10374 106.67439 1479 ft 182 kts 46°
2026-05-08 08:47 -6.09479 106.68426 1927 ft 202 kts 46°
2026-05-08 08:47 -6.08470 106.69524 2363 ft 226 kts 46°
2026-05-08 08:47 -6.07352 106.70742 2821 ft 249 kts 47°
2026-05-08 08:48 -6.06129 106.72078 3323 ft 268 kts 48°
2026-05-08 08:48 -6.04856 106.73473 3989 ft 272 kts 48°
2026-05-08 08:48 -6.03574 106.74878 4596 ft 275 kts 49°
2026-05-08 08:48 -6.02339 106.76318 5177 ft 275 kts 59°
2026-05-08 08:49 -6.01684 106.78125 5799 ft 274 kts 86°
2026-05-08 08:49 -6.01782 106.80005 6401 ft 274 kts 98°
2026-05-08 08:49 -6.02031 106.81909 6977 ft 276 kts 99°
2026-05-08 08:49 -6.02297 106.83833 7579 ft 280 kts 99°
2026-05-08 08:50 -6.02560 106.85781 8168 ft 283 kts 98°
2026-05-08 08:50 -6.02817 106.87749 8776 ft 286 kts 98°
2026-05-08 08:50 -6.03071 106.89743 9414 ft 289 kts 98°
2026-05-08 08:50 -6.03326 106.91758 10007 ft 292 kts 98°
2026-05-08 08:51 -6.03582 106.93808 10571 ft 301 kts 98°
2026-05-08 08:51 -6.03849 106.95938 11048 ft 313 kts 98°
2026-05-08 08:51 -6.04127 106.98149 11532 ft 325 kts 98°
2026-05-08 08:51 -6.04415 107.00439 12019 ft 336 kts 98°
2026-05-08 08:52 -6.04710 107.02803 12516 ft 345 kts 98°
2026-05-08 08:52 -6.05013 107.05221 13021 ft 353 kts 98°
2026-05-08 08:52 -6.05320 107.07674 13514 ft 354 kts 98°
2026-05-08 08:52 -6.05628 107.10135 13980 ft 357 kts 98°
2026-05-08 08:53 -6.05938 107.12618 14433 ft 360 kts 98°
2026-05-08 08:53 -6.06251 107.15125 14891 ft 363 kts 98°
2026-05-08 08:53 -6.06567 107.17650 15357 ft 366 kts 98°
2026-05-08 08:53 -6.06884 107.20194 15831 ft 369 kts 98°
2026-05-08 08:54 -6.07204 107.22756 16317 ft 371 kts 98°
2026-05-08 08:54 -6.07527 107.25342 16803 ft 375 kts 98°
2026-05-08 08:54 -6.07851 107.27948 17300 ft 377 kts 98°
2026-05-08 08:54 -6.08177 107.30568 17803 ft 380 kts 98°
2026-05-08 08:55 -6.08487 107.33060 18262 ft 383 kts 98°
2026-05-08 08:55 -6.08837 107.35863 18724 ft 386 kts 98°
2026-05-08 08:55 -6.09172 107.38548 19173 ft 388 kts 98°
2026-05-08 08:55 -6.09509 107.41251 19631 ft 391 kts 98°
2026-05-08 08:56 -6.09847 107.43965 20090 ft 393 kts 98°
2026-05-08 08:56 -6.10187 107.46691 20559 ft 394 kts 98°
2026-05-08 08:56 -6.10528 107.49432 21038 ft 396 kts 97°
2026-05-08 08:56 -6.10871 107.52180 21523 ft 397 kts 97°
2026-05-08 08:57 -6.11214 107.54939 22013 ft 399 kts 97°
2026-05-08 08:57 -6.11559 107.57711 22501 ft 400 kts 97°
2026-05-08 08:57 -6.11903 107.60480 22682 ft 411 kts 97°
2026-05-08 08:57 -6.12259 107.63353 22988 ft 416 kts 97°
2026-05-08 08:58 -6.12618 107.66241 23417 ft 418 kts 96°
2026-05-08 08:58 -6.12979 107.69153 23765 ft 421 kts 97°
2026-05-08 08:58 -6.13341 107.72074 24128 ft 423 kts 97°
2026-05-08 08:58 -6.13705 107.75015 24467 ft 425 kts 97°
2026-05-08 08:59 -6.14071 107.77971 24805 ft 427 kts 97°
2026-05-08 08:59 -6.14438 107.80941 25142 ft 430 kts 97°
2026-05-08 08:59 -6.14807 107.83929 25471 ft 432 kts 97°
2026-05-08 08:59 -6.15178 107.86926 25782 ft 434 kts 97°
2026-05-08 09:00 -6.15551 107.89946 26100 ft 436 kts 97°
2026-05-08 09:00 -6.15925 107.92978 26412 ft 438 kts 97°
2026-05-08 09:00 -6.16302 107.96030 26718 ft 441 kts 97°
2026-05-08 09:00 -6.16679 107.99092 27008 ft 443 kts 97°
2026-05-08 09:01 -6.17058 108.02167 27292 ft 445 kts 97°
2026-05-08 09:01 -6.17439 108.05259 27595 ft 447 kts 97°
2026-05-08 09:01 -6.17821 108.08364 27871 ft 449 kts 97°
2026-05-08 09:01 -6.18204 108.11483 28124 ft 451 kts 97°
2026-05-08 09:02 -6.18590 108.14620 28392 ft 453 kts 97°
2026-05-08 09:02 -6.18977 108.17768 28662 ft 455 kts 97°
2026-05-08 09:02 -6.19365 108.20929 28910 ft 457 kts 97°
2026-05-08 09:02 -6.19749 108.24061 29144 ft 459 kts 97°
2026-05-08 09:03 -6.20140 108.27249 29413 ft 461 kts 97°
2026-05-08 09:03 -6.20533 108.30450 29647 ft 463 kts 97°
2026-05-08 09:03 -6.20927 108.33664 29893 ft 464 kts 97°
2026-05-08 09:03 -6.21322 108.36889 30109 ft 466 kts 97°
2026-05-08 09:04 -6.21719 108.40128 30325 ft 468 kts 97°
2026-05-08 09:04 -6.22117 108.43381 30538 ft 470 kts 97°
2026-05-08 09:04 -6.22516 108.46641 30766 ft 471 kts 97°
2026-05-08 09:04 -6.22916 108.49913 31012 ft 472 kts 96°
2026-05-08 09:05 -6.23316 108.53181 31325 ft 471 kts 96°
2026-05-08 09:05 -6.23716 108.56452 31619 ft 471 kts 96°
2026-05-08 09:05 -6.24115 108.59716 31917 ft 471 kts 96°
2026-05-08 09:05 -6.24513 108.62977 32199 ft 470 kts 96°
2026-05-08 09:06 -6.24911 108.66237 32482 ft 470 kts 96°
2026-05-08 09:06 -6.25308 108.69496 32765 ft 469 kts 96°
2026-05-08 09:06 -6.25576 108.71696 32951 ft 469 kts 96°
2026-05-08 09:06 -6.25968 108.74908 33217 ft 469 kts 96°
2026-05-08 09:07 -6.26363 108.78160 33463 ft 469 kts 96°
2026-05-08 09:07 -6.26759 108.81412 33720 ft 469 kts 96°
2026-05-08 09:07 -6.27154 108.84661 33961 ft 468 kts 96°
2026-05-08 09:07 -6.27548 108.87907 34191 ft 467 kts 96°
2026-05-08 09:08 -6.27942 108.91145 34404 ft 467 kts 96°
2026-05-08 09:08 -6.28336 108.94386 34625 ft 467 kts 96°
2026-05-08 09:08 -6.28729 108.97618 34835 ft 466 kts 96°
2026-05-08 09:08 -6.29121 109.00852 35040 ft 466 kts 96°
2026-05-08 09:09 -6.29513 109.04083 35251 ft 465 kts 96°
2026-05-08 09:09 -6.29904 109.07308 35457 ft 465 kts 96°
2026-05-08 09:09 -6.30295 109.10533 35673 ft 464 kts 96°
2026-05-08 09:09 -6.30684 109.13750 35883 ft 464 kts 96°
2026-05-08 09:10 -6.31074 109.16967 36098 ft 463 kts 96°
2026-05-08 09:10 -6.31463 109.20182 36298 ft 463 kts 96°
2026-05-08 09:10 -6.31851 109.23390 36514 ft 462 kts 96°
2026-05-08 09:10 -6.32238 109.26595 36726 ft 462 kts 96°
2026-05-08 09:11 -6.32625 109.29798 36936 ft 461 kts 96°
2026-05-08 09:11 -6.33011 109.32998 37140 ft 461 kts 96°
2026-05-08 09:11 -6.33396 109.36190 37339 ft 460 kts 96°
2026-05-08 09:11 -6.33781 109.39378 37524 ft 459 kts 96°
2026-05-08 09:12 -6.34165 109.42564 37704 ft 459 kts 96°
2026-05-08 09:12 -6.34549 109.45750 37879 ft 458 kts 96°
2026-05-08 09:12 -6.34931 109.48929 38053 ft 458 kts 96°
2026-05-08 09:12 -6.35308 109.52061 38216 ft 458 kts 96°
2026-05-08 09:13 -6.35690 109.55234 38375 ft 457 kts 96°
2026-05-08 09:13 -6.36072 109.58410 38502 ft 457 kts 95°
2026-05-08 09:13 -6.36452 109.61579 38629 ft 457 kts 95°
2026-05-08 09:13 -6.36833 109.64748 38743 ft 456 kts 95°
2026-05-08 09:14 -6.37592 109.71074 38789 ft 455 kts 95°
2026-05-08 09:14 -6.38349 109.77391 38781 ft 455 kts 95°
2026-05-08 09:15 -6.39105 109.83705 38788 ft 455 kts 95°
2026-05-08 09:15 -6.39861 109.90022 38796 ft 455 kts 95°
2026-05-08 09:16 -6.40616 109.96343 38790 ft 455 kts 95°
2026-05-08 09:16 -6.41371 110.02665 38788 ft 456 kts 95°
2026-05-08 09:17 -6.42125 110.08990 38787 ft 456 kts 96°
2026-05-08 09:17 -6.42878 110.15315 38788 ft 456 kts 96°
2026-05-08 09:18 -6.43631 110.21643 38788 ft 456 kts 96°
2026-05-08 09:18 -6.44379 110.27936 38788 ft 456 kts 96°
2026-05-08 09:19 -6.45123 110.34269 38781 ft 456 kts 94°
2026-05-08 09:19 -6.45226 110.40630 38784 ft 455 kts 85°
2026-05-08 09:20 -6.44464 110.46939 38780 ft 454 kts 81°
2026-05-08 09:20 -6.43632 110.53238 38780 ft 455 kts 81°
2026-05-08 09:21 -6.42801 110.59549 38784 ft 455 kts 81°
2026-05-08 09:23 -6.39866 110.81695 38793 ft 458 kts 81°
2026-05-08 09:23 -6.39021 110.88047 38796 ft 459 kts 81°
2026-05-08 09:24 -6.38175 110.94406 38794 ft 459 kts 81°
2026-05-08 09:24 -6.37327 111.00772 38797 ft 460 kts 81°
2026-05-08 09:25 -6.36484 111.07102 38791 ft 461 kts 81°
2026-05-08 09:25 -6.35632 111.13490 38791 ft 461 kts 81°
2026-05-08 09:26 -6.34789 111.19880 38795 ft 461 kts 82°
2026-05-08 09:26 -6.33946 111.26276 38796 ft 462 kts 82°
2026-05-08 09:27 -6.33100 111.32675 38796 ft 462 kts 82°
2026-05-08 09:27 -6.32252 111.39079 38790 ft 462 kts 82°
2026-05-08 09:28 -6.31402 111.45490 38796 ft 463 kts 82°
2026-05-08 09:28 -6.30552 111.51902 38792 ft 463 kts 82°
2026-05-08 09:29 -6.29699 111.58322 38794 ft 463 kts 82°
2026-05-08 09:29 -6.28846 111.64740 38804 ft 464 kts 82°
2026-05-08 09:30 -6.27991 111.71167 38802 ft 464 kts 82°
2026-05-08 09:30 -6.27136 111.77592 38799 ft 464 kts 82°
2026-05-08 09:31 -6.26284 111.83971 38801 ft 463 kts 82°
2026-05-08 09:31 -6.25410 111.90385 38800 ft 463 kts 82°
2026-05-08 09:32 -6.24535 111.96796 38804 ft 463 kts 82°
2026-05-08 09:32 -6.23661 112.03209 38806 ft 463 kts 82°
2026-05-08 09:33 -6.22786 112.09620 38805 ft 463 kts 82°
2026-05-08 09:33 -6.21911 112.16036 38799 ft 463 kts 82°
2026-05-08 09:34 -6.21034 112.22451 38804 ft 463 kts 82°
2026-05-08 09:34 -6.20157 112.28867 38808 ft 464 kts 82°
2026-05-08 09:35 -6.19278 112.35289 38807 ft 464 kts 82°
2026-05-08 09:35 -6.18398 112.41712 38807 ft 464 kts 82°
2026-05-08 09:36 -6.17516 112.48141 38809 ft 465 kts 82°
2026-05-08 09:36 -6.16633 112.54575 38811 ft 465 kts 82°
2026-05-08 09:37 -6.15749 112.61012 38815 ft 465 kts 82°
2026-05-08 09:37 -6.14862 112.67457 38819 ft 466 kts 82°
2026-05-08 09:38 -6.13975 112.73902 38812 ft 466 kts 82°
2026-05-08 09:38 -6.13088 112.80342 38812 ft 466 kts 82°
2026-05-08 09:39 -6.12199 112.86794 38812 ft 466 kts 82°
2026-05-08 09:39 -6.11314 112.93204 38814 ft 466 kts 82°
2026-05-08 09:40 -6.10422 112.99660 38815 ft 466 kts 82°
2026-05-08 09:40 -6.09531 113.06111 38811 ft 467 kts 82°
2026-05-08 09:41 -6.08637 113.12570 38815 ft 467 kts 82°
2026-05-08 09:41 -6.07742 113.19026 38818 ft 467 kts 82°
2026-05-08 09:42 -6.06847 113.25486 38814 ft 467 kts 82°
2026-05-08 09:42 -6.05950 113.31950 38820 ft 467 kts 82°
2026-05-08 09:43 -6.05053 113.38416 38816 ft 467 kts 82°
2026-05-08 09:43 -6.04154 113.44881 38824 ft 467 kts 82°
2026-05-08 09:44 -6.03256 113.51339 38820 ft 467 kts 82°
2026-05-08 09:44 -6.02363 113.57756 38818 ft 467 kts 82°
2026-05-08 09:45 -6.01462 113.64217 38821 ft 467 kts 82°
2026-05-08 09:45 -6.00561 113.70681 38821 ft 467 kts 82°
2026-05-08 09:46 -5.99658 113.77146 38820 ft 467 kts 82°
2026-05-08 09:46 -5.98756 113.83610 38818 ft 467 kts 82°
2026-05-08 09:47 -5.97852 113.90071 38818 ft 467 kts 82°
2026-05-08 09:47 -5.96948 113.96533 38819 ft 467 kts 82°
2026-05-08 09:48 -5.96042 114.02999 38820 ft 467 kts 82°
2026-05-08 09:48 -5.95136 114.09465 38824 ft 467 kts 82°
2026-05-08 09:49 -5.94230 114.15922 38819 ft 467 kts 82°
2026-05-08 09:49 -5.93320 114.22387 38818 ft 467 kts 82°
2026-05-08 09:50 -5.92412 114.28849 38822 ft 467 kts 82°
2026-05-08 09:50 -5.91509 114.35264 38823 ft 467 kts 82°
2026-05-08 09:51 -5.90600 114.41725 38823 ft 467 kts 82°
2026-05-08 09:51 -5.89689 114.48184 38822 ft 467 kts 82°
2026-05-08 09:52 -5.88778 114.54643 38826 ft 467 kts 82°
2026-05-08 09:52 -5.87866 114.61099 38823 ft 467 kts 82°
2026-05-08 09:53 -5.86953 114.67558 38825 ft 467 kts 82°
2026-05-08 09:53 -5.86039 114.74018 38821 ft 467 kts 82°
2026-05-08 09:54 -5.85125 114.80476 38819 ft 467 kts 82°
2026-05-08 09:54 -5.84211 114.86931 38821 ft 466 kts 82°
2026-05-08 09:55 -5.83295 114.93387 38824 ft 467 kts 82°
2026-05-08 09:55 -5.82379 114.99842 38821 ft 467 kts 82°
2026-05-08 09:56 -5.81461 115.06300 38826 ft 467 kts 82°
2026-05-08 09:56 -5.80550 115.12707 38822 ft 466 kts 82°
2026-05-08 09:57 -5.79175 115.22373 38822 ft 467 kts 82°
2026-05-08 09:57 -5.78256 115.28826 38821 ft 466 kts 82°
2026-05-08 09:58 -5.77337 115.35268 38826 ft 466 kts 81°
2026-05-08 09:58 -5.76418 115.41713 38823 ft 466 kts 81°
2026-05-08 09:59 -5.75498 115.48153 38828 ft 466 kts 81°
2026-05-08 09:59 -5.74733 115.53505 38824 ft 466 kts 81°
2026-05-08 10:00 -5.73812 115.59947 38827 ft 467 kts 81°
2026-05-08 10:00 -5.72889 115.66393 38827 ft 466 kts 81°
2026-05-08 10:01 -5.71967 115.72830 38828 ft 466 kts 81°
2026-05-08 10:01 -5.71043 115.79275 38823 ft 466 kts 81°
2026-05-08 10:02 -5.70120 115.85708 38825 ft 465 kts 81°
2026-05-08 10:02 -5.69197 115.92141 38827 ft 466 kts 81°
2026-05-08 10:03 -5.68274 115.98556 38826 ft 464 kts 81°
2026-05-08 10:03 -5.67350 116.04987 38826 ft 465 kts 81°
2026-05-08 10:04 -5.66425 116.11412 38825 ft 464 kts 81°
2026-05-08 10:04 -5.65508 116.17775 38830 ft 464 kts 81°
2026-05-08 10:05 -5.64583 116.24186 38832 ft 464 kts 81°
2026-05-08 10:05 -5.63658 116.30595 38832 ft 464 kts 81°
2026-05-08 10:06 -5.62733 116.36999 38830 ft 463 kts 81°
2026-05-08 10:06 -5.61808 116.43401 38829 ft 463 kts 81°
2026-05-08 10:07 -5.60884 116.49793 38828 ft 462 kts 81°
2026-05-08 10:07 -5.59961 116.56172 38828 ft 462 kts 81°
2026-05-08 10:08 -5.59036 116.62555 38831 ft 462 kts 81°
2026-05-08 10:08 -5.58112 116.68932 38830 ft 461 kts 81°
2026-05-08 10:09 -5.57187 116.75304 38829 ft 461 kts 81°
2026-05-08 10:09 -5.56263 116.81670 38828 ft 461 kts 81°
2026-05-08 10:10 -5.55338 116.88029 38828 ft 460 kts 81°
2026-05-08 10:10 -5.54414 116.94390 38829 ft 460 kts 81°
2026-05-08 10:11 -5.53489 117.00747 38828 ft 461 kts 81°
2026-05-08 10:11 -5.52570 117.07063 38830 ft 460 kts 81°
2026-05-08 10:12 -5.51748 117.13433 38829 ft 460 kts 83°
2026-05-08 10:12 -5.50978 117.19799 38828 ft 459 kts 83°
2026-05-08 10:13 -5.50192 117.26157 38831 ft 459 kts 83°
2026-05-08 10:13 -5.49398 117.32511 38830 ft 459 kts 83°
2026-05-08 10:14 -5.48604 117.38853 38620 ft 456 kts 83°
2026-05-08 10:14 -5.48207 117.42021 37959 ft 459 kts 83°
2026-05-08 10:14 -5.47807 117.45217 37045 ft 465 kts 83°
2026-05-08 10:15 -5.47399 117.48466 35998 ft 473 kts 83°
2026-05-08 10:15 -5.46985 117.51773 35004 ft 481 kts 83°
2026-05-08 10:15 -5.46565 117.55118 34113 ft 485 kts 83°
2026-05-08 10:15 -5.46143 117.58483 33182 ft 487 kts 83°
2026-05-08 10:16 -5.45718 117.61860 32263 ft 489 kts 83°
2026-05-08 10:16 -5.45292 117.65249 31346 ft 490 kts 83°
2026-05-08 10:16 -5.44865 117.68652 30444 ft 492 kts 83°
2026-05-08 10:16 -5.44436 117.72063 29572 ft 492 kts 83°
2026-05-08 10:17 -5.44010 117.75445 29022 ft 484 kts 83°
2026-05-08 10:17 -5.43592 117.78769 28432 ft 477 kts 83°
2026-05-08 10:17 -5.43180 117.82044 27856 ft 471 kts 83°
2026-05-08 10:17 -5.42772 117.85285 27265 ft 465 kts 83°
2026-05-08 10:18 -5.42369 117.88485 26694 ft 459 kts 83°
2026-05-08 10:18 -5.41971 117.91647 26092 ft 455 kts 83°
2026-05-08 10:18 -5.41576 117.94780 25516 ft 451 kts 83°
2026-05-08 10:18 -5.41184 117.97886 24963 ft 446 kts 83°
2026-05-08 10:19 -5.40796 118.00962 24416 ft 442 kts 83°
2026-05-08 10:19 -5.40411 118.04011 23858 ft 438 kts 83°
2026-05-08 10:19 -5.40029 118.07037 23281 ft 435 kts 83°
2026-05-08 10:20 -5.39279 118.12984 22323 ft 420 kts 83°
2026-05-08 10:20 -5.38919 118.15863 21910 ft 412 kts 83°
2026-05-08 10:20 -5.38563 118.18715 21503 ft 411 kts 83°
2026-05-08 10:20 -5.38208 118.21564 21096 ft 412 kts 83°
2026-05-08 10:21 -5.37853 118.24408 20695 ft 410 kts 83°
2026-05-08 10:21 -5.37503 118.27203 20298 ft 407 kts 83°
2026-05-08 10:21 -5.37153 118.30005 19902 ft 403 kts 83°
2026-05-08 10:21 -5.36803 118.32791 19505 ft 402 kts 83°
2026-05-08 10:22 -5.36455 118.35565 19108 ft 400 kts 83°
2026-05-08 10:22 -5.36109 118.38327 18721 ft 398 kts 84°
2026-05-08 10:22 -5.35765 118.41070 18331 ft 395 kts 84°
2026-05-08 10:22 -5.35423 118.43795 17907 ft 393 kts 84°
2026-05-08 10:23 -5.35083 118.46503 17527 ft 389 kts 84°
2026-05-08 10:23 -5.34747 118.49188 17142 ft 387 kts 84°
2026-05-08 10:23 -5.34412 118.51858 16768 ft 384 kts 84°
2026-05-08 10:23 -5.34080 118.54507 16399 ft 381 kts 83°
2026-05-08 10:24 -5.33749 118.57138 16020 ft 379 kts 83°
2026-05-08 10:24 -5.33421 118.59749 15649 ft 376 kts 83°
2026-05-08 10:24 -5.33095 118.62340 15283 ft 373 kts 83°
2026-05-08 10:24 -5.32772 118.64913 14912 ft 370 kts 83°
2026-05-08 10:25 -5.32450 118.67469 14547 ft 368 kts 83°
2026-05-08 10:25 -5.32131 118.70006 14189 ft 365 kts 83°
2026-05-08 10:25 -5.31814 118.72527 13830 ft 363 kts 83°
2026-05-08 10:25 -5.31499 118.75025 13466 ft 360 kts 83°
2026-05-08 10:26 -5.31187 118.77505 13098 ft 358 kts 83°
2026-05-08 10:26 -5.30877 118.79965 12805 ft 353 kts 83°
2026-05-08 10:26 -5.30575 118.82360 12547 ft 347 kts 83°
2026-05-08 10:26 -5.30272 118.84768 12543 ft 351 kts 83°
2026-05-08 10:27 -5.29965 118.87202 12515 ft 351 kts 83°
2026-05-08 10:27 -5.29657 118.89640 12508 ft 352 kts 83°
2026-05-08 10:27 -5.29477 118.92076 12356 ft 349 kts 90°
2026-05-08 10:27 -5.29476 118.94509 11976 ft 347 kts 90°
2026-05-08 10:28 -5.29474 118.96919 11503 ft 345 kts 90°
2026-05-08 10:28 -5.29469 118.99312 11038 ft 341 kts 90°
2026-05-08 10:28 -5.29462 119.01679 10553 ft 338 kts 90°
2026-05-08 10:28 -5.29454 119.04022 10162 ft 332 kts 90°
2026-05-08 10:29 -5.29445 119.06304 9969 ft 323 kts 90°
2026-05-08 10:29 -5.29437 119.08533 9891 ft 314 kts 90°
2026-05-08 10:29 -5.29428 119.10680 9794 ft 302 kts 90°
2026-05-08 10:29 -5.29420 119.12738 9688 ft 289 kts 90°
2026-05-08 10:30 -5.29412 119.14733 9363 ft 284 kts 90°
2026-05-08 10:30 -5.29404 119.16698 8988 ft 281 kts 90°
2026-05-08 10:30 -5.29396 119.18651 8601 ft 279 kts 90°
2026-05-08 10:30 -5.29388 119.20590 8228 ft 277 kts 90°
2026-05-08 10:31 -5.29380 119.22519 7845 ft 276 kts 90°
2026-05-08 10:31 -5.29372 119.24440 7470 ft 274 kts 90°
2026-05-08 10:31 -5.29364 119.26346 7108 ft 272 kts 90°
2026-05-08 10:31 -5.29357 119.28240 6764 ft 270 kts 90°
2026-05-08 10:32 -5.29349 119.30119 6386 ft 269 kts 90°
2026-05-08 10:32 -5.29341 119.31967 6038 ft 268 kts 90°
2026-05-08 10:32 -5.29334 119.33830 5670 ft 266 kts 90°
2026-05-08 10:32 -5.29326 119.35676 5299 ft 264 kts 90°
2026-05-08 10:33 -5.29318 119.37515 4954 ft 262 kts 90°
2026-05-08 10:33 -5.29311 119.39339 4576 ft 261 kts 90°
2026-05-08 10:33 -5.29223 119.41152 4264 ft 257 kts 78°
2026-05-08 10:33 -5.28466 119.42764 4127 ft 266 kts 52°
2026-05-08 10:34 -5.27092 119.44008 3834 ft 267 kts 37°
2026-05-08 10:34 -5.25520 119.44990 3557 ft 265 kts 31°
2026-05-08 10:34 -5.23925 119.45890 3279 ft 260 kts 32°
2026-05-08 10:34 -5.22436 119.46751 3338 ft 231 kts 31°
2026-05-08 10:35 -5.21108 119.47521 3184 ft 213 kts 32°
2026-05-08 10:35 -5.19874 119.48235 3007 ft 193 kts 31°
2026-05-08 10:35 -5.18731 119.48897 2554 ft 189 kts 31°
2026-05-08 10:35 -5.17579 119.49565 2150 ft 190 kts 31°
2026-05-08 10:36 -5.16465 119.50209 1749 ft 180 kts 31°
2026-05-08 10:36 -5.15423 119.50812 1445 ft 164 kts 31°
2026-05-08 10:36 -5.14487 119.51354 1218 ft 148 kts 30°
2026-05-08 10:36 -5.13635 119.51848 1030 ft 136 kts 30°
2026-05-08 10:37 -5.12808 119.52326 863 ft 139 kts 29°
2026-05-08 10:37 -5.11987 119.52802 687 ft 138 kts 29°
2026-05-08 10:37 -5.11159 119.53281 521 ft 136 kts 29°
2026-05-08 10:37 -5.10336 119.53757 337 ft 136 kts 29°
2026-05-08 10:38 -5.09522 119.54228 160 ft 134 kts 30°
2026-05-08 10:38 -5.08722 119.54696 50 ft 129 kts 31°
2026-05-08 10:38 -5.08162 119.55016 46 ft 50 kts 30°
2026-05-08 10:38 -5.08041 119.55087 47 ft 16 kts 30°
2026-05-08 10:39 -5.07891 119.55173 46 ft 32 kts 30°
2026-05-08 10:39 -5.07723 119.55241 49 ft 18 kts 336°
2026-05-08 10:39 -5.07646 119.55135 48 ft 20 kts 300°
2026-05-08 10:39 -5.07581 119.55003 48 ft 21 kts 274°
2026-05-08 10:40 -5.07633 119.54914 48 ft 13 kts 243°
2026-05-08 10:40 -5.07670 119.54858 48 ft 9 kts 214°
2026-05-08 10:40 -5.07665 119.54824 48 ft 6 kts 292°
2026-05-08 10:40 -5.07651 119.54788 48 ft 0 kts 292°